H1 CPF 2 NER 2024 4 29 9 120 01 glonass145 H2 2213001 9145 54031 2024 4 29 0 0 0 2024 5 2 23 45 0 900 1 1 0 0 0 1 H9 10 0 60429 0.00000 0 669594.968 15784985.787 -20030322.077 10 0 60429 900.00000 0 -533178.390 17819449.922 -18250338.799 10 0 60429 1800.00000 0 -1468943.502 19724766.234 -16116075.243 10 0 60429 2700.00000 0 -2144685.413 21437489.587 -13668987.857 10 0 60429 3600.00000 0 -2579362.466 22898795.329 -10956594.794 10 0 60429 4500.00000 0 -2802853.311 24056872.616 -8031554.350 10 0 60429 5400.00000 0 -2854442.607 24869043.008 -4950643.981 10 0 60429 6300.00000 0 -2780910.169 25303515.929 -1773659.549 10 0 60429 7200.00000 0 -2634304.948 25340707.594 1437743.847 10 0 60429 8100.00000 0 -2469498.495 24974068.206 4621246.978 10 0 60429 9000.00000 0 -2341621.718 24210382.786 7715074.293 10 0 60429 9900.00000 0 -2303493.701 23069532.972 10659190.881 10 0 60429 10800.00000 0 -2403151.573 21583729.642 13396465.367 10 0 60429 11700.00000 0 -2681586.158 19796248.316 15873776.247 10 0 60429 12600.00000 0 -3170779.399 17759719.959 18043040.319 10 0 60429 13500.00000 0 -3892126.907 15534048.294 19862143.527 10 0 60429 14400.00000 0 -4855312.763 13184040.085 21295756.511 10 0 60429 15300.00000 0 -6057684.833 10776846.764 22316019.362 10 0 60429 16200.00000 0 -7484157.941 8379323.356 22903082.649 10 0 60429 17100.00000 0 -9107650.231 6055414.023 23045494.447 10 0 60429 18000.00000 0 -10890035.850 3863672.376 22740425.918 10 0 60429 18900.00000 0 -12783575.504 1855019.023 21993730.954 10 0 60429 19800.00000 0 -14732766.486 70829.009 20819838.377 10 0 60429 20700.00000 0 -16676536.049 -1458571.836 19241478.295 10 0 60429 21600.00000 0 -18550687.488 -2714939.587 17289247.225 10 0 60429 22500.00000 0 -20290497.368 -3692631.502 15001019.723 10 0 60429 23400.00000 0 -21833355.607 -4398590.773 12421217.248 10 0 60429 24300.00000 0 -23121337.938 -4851798.103 9599947.894 10 0 60429 25200.00000 0 -24103602.679 -5082213.895 6592033.311 10 0 60429 26100.00000 0 -24738510.762 -5129256.390 3455941.650 10 0 60429 27000.00000 0 -24995379.372 -5039880.850 252647.468 10 0 60429 27900.00000 0 -24855794.817 -4866341.885 -2955558.862 10 0 60429 28800.00000 0 -24314428.772 -4663734.637 -6106288.324 10 0 60429 29700.00000 0 -23379323.071 -4487419.939 -9138272.633 10 0 60429 30600.00000 0 -22071630.681 -4390443.568 -11992561.263 10 0 60429 31500.00000 0 -20424823.630 -4421059.876 -14613672.106 10 0 60429 32400.00000 0 -18483401.118 -4620465.533 -16950672.867 10 0 60429 33300.00000 0 -16301152.125 -5020840.035 -18958171.859 10 0 60429 34200.00000 0 -13939045.497 -5643776.436 -20597198.899 10 0 60429 35100.00000 0 -11462835.884 -6499169.090 -21835959.423 10 0 60429 36000.00000 0 -8940485.564 -7584605.744 -22650447.631 10 0 60429 36900.00000 0 -6439509.557 -8885290.015 -23024907.326 10 0 60429 37800.00000 0 -4024354.270 -10374497.891 -22952132.139 10 0 60429 38700.00000 0 -1753918.139 -12014549.604 -22433599.948 10 0 60429 39600.00000 0 320683.384 -13758256.563 -21479439.329 10 0 60429 40500.00000 0 2158016.655 -15550783.286 -20108229.101 10 0 60429 41400.00000 0 3727814.726 -17331846.921 -18346634.959 10 0 60429 42300.00000 0 5011987.856 -19038162.800 -16228890.288 10 0 60429 43200.00000 0 6005119.038 -20606034.192 -13796131.092 10 0 60429 44100.00000 0 6714425.380 -21973978.243 -11095597.720 10 0 60429 45000.00000 0 7159188.428 -23085278.461 -8179718.666 10 0 60429 45900.00000 0 7369678.749 -23890357.030 -5105094.017 10 0 60429 46800.00000 0 7385621.161 -24348867.621 -1931398.097 10 0 60429 47700.00000 0 7254266.295 -24431420.929 1279777.380 10 0 60429 48600.00000 0 7028150.595 -24120870.488 4466117.249 10 0 60429 49500.00000 0 6762639.965 -23413104.623 7565790.655 10 0 60429 50400.00000 0 6513361.283 -22317311.074 10518649.135 10 0 60429 51300.00000 0 6333630.636 -20855702.878 13267391.740 10 0 60429 52200.00000 0 6271987.212 -19062716.528 15758674.662 10 0 60429 53100.00000 0 6369937.220 -16983715.525 17944143.961 10 0 60429 54000.00000 0 6660003.363 -14673252.891 19781371.625 10 0 60429 54900.00000 0 7164162.484 -12192964.537 21234677.142 10 0 60429 55800.00000 0 7892737.735 -9609180.598 22275819.013 10 0 60429 56700.00000 0 8843792.638 -6990353.445 22884543.091 10 0 60429 57600.00000 0 10003053.412 -4404408.551 23048977.404 10 0 60429 58500.00000 0 11344363.945 -1916127.592 22765865.823 10 0 60429 59400.00000 0 12830655.554 415328.250 22040635.959 10 0 60429 60300.00000 0 14415392.133 2538652.587 20887299.633 10 0 60429 61200.00000 0 16044431.362 4412293.480 19328187.319 10 0 60429 62100.00000 0 17658225.013 6005940.015 17393521.084 10 0 60429 63000.00000 0 19194266.989 7301534.509 15120833.538 10 0 60429 63900.00000 0 20589686.908 8293768.647 12554243.422 10 0 60429 64800.00000 0 21783880.607 8990043.513 9743601.303 10 0 60429 65700.00000 0 22721066.932 9409895.905 6743521.592 10 0 60429 66600.00000 0 23352662.883 9583915.845 3612319.596 10 0 60429 67500.00000 0 23639376.583 9552201.802 410874.459 10 0 60429 68400.00000 0 23552929.158 9362419.750 -2798559.516 10 0 60429 69300.00000 0 23077332.227 9067549.154 -5953569.326 10 0 60429 70200.00000 0 22209666.436 8723412.258 -8992803.104 10 0 60429 71100.00000 0 20960327.609 8386092.317 -11857168.811 10 0 60429 72000.00000 0 19352729.683 8109351.040 -14490987.707 10 0 60429 72900.00000 0 17422476.566 7942155.425 -16843079.649 10 0 60429 73800.00000 0 15216037.467 7926419.313 -18867758.801 10 0 60429 74700.00000 0 12788981.139 8095055.672 -20525720.339 10 0 60429 75600.00000 0 10203842.803 8470422.251 -21784801.143 10 0 60429 76500.00000 0 7527712.733 9063226.426 -22620600.162 10 0 60429 77400.00000 0 4829646.843 9871935.537 -23016946.950 10 0 60429 78300.00000 0 2178006.734 10882717.675 -22966209.931 10 0 60429 79200.00000 0 -362160.743 12069915.593 -22469439.040 10 0 60429 80100.00000 0 -2731596.243 13397034.000 -21536340.458 10 0 60429 81000.00000 0 -4879051.196 14818199.108 -20185084.307 10 0 60429 81900.00000 0 -6763170.403 16280029.540 -18441949.197 10 0 60429 82800.00000 0 -8353956.886 17723840.472 -16340810.534 10 0 60429 83700.00000 0 -9633759.471 19088088.967 -13922482.394 10 0 60429 84600.00000 0 -10597743.385 20310958.271 -11233925.489 10 0 60429 85500.00000 0 -11253825.672 21332972.863 -8327336.394 10 0 60430 0.00000 0 -11622079.548 22099534.626 -5259135.750 10 0 60430 900.00000 0 -11733634.157 22563274.049 -2088873.263 10 0 60430 1800.00000 0 -11629116.700 22686116.654 1121925.145 10 0 60430 2700.00000 0 -11356704.147 22440979.014 4310951.118 10 0 60430 3600.00000 0 -10969866.877 21813021.749 7416321.307 10 0 60430 4500.00000 0 -10524900.280 20800406.903 10377776.514 10 0 60430 5400.00000 0 -10078348.869 19414527.351 13137849.002 10 0 60430 6300.00000 0 -9684431.894 17679697.995 15642975.384 10 0 60430 7200.00000 0 -9392579.299 15632320.973 17844533.590 10 0 60430 8100.00000 0 -9245182.081 13319559.016 19699784.096 10 0 60430 9000.00000 0 -9275652.045 10797571.443 21172697.482 10 0 60430 9900.00000 0 -9506872.910 8129385.461 22234652.618 10 0 60430 10800.00000 0 -9950108.321 5382490.414 22864992.281 10 0 60430 11700.00000 0 -10604413.221 2626254.073 23051425.693 10 0 60430 12600.00000 0 -11456574.022 -70732.594 22790270.218 10 0 60430 13500.00000 0 -12481580.967 -2643272.789 22086527.460 10 0 60430 14400.00000 0 -13643613.820 -5032035.498 20953791.959 10 0 60430 15300.00000 0 -14897500.516 -7185779.396 19413993.713 10 0 60430 16200.00000 0 -16190588.471 -9063237.193 17496978.927 10 0 60430 17100.00000 0 -17464950.790 -10634582.602 15239936.325 10 0 60430 18000.00000 0 -18659835.195 -11882419.273 12686679.517 10 0 60430 18900.00000 0 -19714252.991 -12802250.977 9886798.741 10 0 60430 19800.00000 0 -20569599.085 -13402413.978 6894698.070 10 0 60430 20700.00000 0 -21172192.338 -13703475.138 3768536.661 10 0 60430 21600.00000 0 -21475628.597 -13737121.885 569094.823 10 0 60430 22500.00000 0 -21442846.402 -13544591.723 -2641412.686 10 0 60430 23400.00000 0 -21047817.291 -13174708.576 -5800552.335 10 0 60430 24300.00000 0 -20276788.556 -12681609.929 -8846892.079 10 0 60430 25200.00000 0 -19129025.140 -12122261.978 -11721201.660 10 0 60430 26100.00000 0 -17617018.692 -11553868.807 -14367608.843 10 0 60430 27000.00000 0 -15766154.369 -11031286.098 -16734688.532 10 0 60430 27900.00000 0 -13613848.884 -10604549.350 -18776463.314 10 0 60430 28800.00000 0 -11208195.577 -10316621.578 -20453295.865 10 0 60430 29700.00000 0 -8606172.939 -10201455.824 -21732656.142 10 0 60430 30600.00000 0 -5871491.103 -10282454.289 -22589748.880 10 0 60430 31500.00000 0 -3072165.799 -10571388.944 -23007989.793 10 0 60430 32400.00000 0 -277920.369 -11067828.899 -22979321.877 10 0 60430 33300.00000 0 2442476.729 -11759098.451 -22504366.315 10 0 60430 34200.00000 0 5023828.974 -12620767.423 -21592405.545 10 0 60430 35100.00000 0 7406975.559 -13617653.099 -20261199.183 10 0 60430 36000.00000 0 9541000.647 -14705291.726 -18536636.540 10 0 60430 36900.00000 0 11385097.360 -15831817.830 -16452232.492 10 0 60430 37800.00000 0 12910010.282 -16940172.575 -14048476.340 10 0 60430 38700.00000 0 14098997.694 -17970548.565 -11372046.078 10 0 60430 39600.00000 0 14948274.759 -18862968.444 -8474903.083 10 0 60430 40500.00000 0 15466920.489 -19559888.995 -5413284.590 10 0 60430 41400.00000 0 15676253.689 -20008721.176 -2246613.331 10 0 60430 42300.00000 0 15608705.241 -20164159.977 963654.518 10 0 60430 43200.00000 0 15306235.175 -19990225.815 4155220.723 10 0 60430 44100.00000 0 14818362.026 -19461931.231 7266152.528 10 0 60430 45000.00000 0 14199888.141 -18566502.315 10236082.799 10 0 60430 45900.00000 0 13508417.325 -17304102.922 13007379.459 10 0 60430 46800.00000 0 12801769.778 -15688030.504 15526261.573 10 0 60430 47700.00000 0 12135403.447 -13744374.526 17743840.548 10 0 60430 48600.00000 0 11559950.528 -11511150.759 19617066.497 10 0 60430 49500.00000 0 11118972.832 -9036946.567 21109561.781 10 0 60430 50400.00000 0 10847030.512 -6379132.577 22192325.878 10 0 60430 51300.00000 0 10768145.421 -3601714.084 22844298.286 10 0 60430 52200.00000 0 10894723.852 -772910.359 23052768.798 10 0 60430 53100.00000 0 11226984.242 2037438.595 22813627.270 10 0 60430 54000.00000 0 11752914.305 4760531.205 22131447.958 10 0 60430 54900.00000 0 12448760.012 7331219.942 21019406.479 10 0 60430 55800.00000 0 13280026.521 9690475.494 19499030.485 10 0 60430 56700.00000 0 14202949.710 11787597.796 17599788.246 10 0 60430 57600.00000 0 15166377.082 13582082.468 15358522.385 10 0 60430 58500.00000 0 16113979.349 15045065.334 12818739.049 10 0 60430 59400.00000 0 16986699.866 16160285.198 10029765.733 10 0 60430 60300.00000 0 17725338.653 16924525.066 7045793.688 10 0 60430 61200.00000 0 18273161.739 17347513.831 3924823.416 10 0 60430 62100.00000 0 18578425.111 17451293.251 727533.892 10 0 60430 63000.00000 0 18596705.921 17269077.574 -2483902.110 10 0 60430 63900.00000 0 18292941.556 16843654.767 -5647032.859 10 0 60430 64800.00000 0 17643089.443 16225397.806 -8700348.287 10 0 60430 65700.00000 0 16635336.508 15469970.966 -11584481.857 10 0 60430 66600.00000 0 15270806.359 14635829.007 -14243369.528 10 0 60430 67500.00000 0 13563733.527 13781615.794 -16625342.702 10 0 60430 68400.00000 0 11541096.727 12963572.881 -18684133.609 10 0 60430 69300.00000 0 9241725.901 12233067.963 -20379773.459 10 0 60430 70200.00000 0 6714919.951 11634347.651 -21679366.159 10 0 60430 71100.00000 0 4018632.422 11202609.270 -22557722.965 10 0 60430 72000.00000 0 1217300.411 10962472.645 -22997846.344 10 0 60430 72900.00000 0 -1620593.375 10926915.763 -22991254.276 10 0 60430 73800.00000 0 -4425124.619 11096718.591 -22538139.365 10 0 60430 74700.00000 0 -7127589.893 11460437.897 -21647360.173 10 0 60430 75600.00000 0 -9663117.875 11994913.682 -20336265.315 10 0 60430 76500.00000 0 -11973121.792 12666285.550 -18630353.932 10 0 60430 77400.00000 0 -14007492.152 13431476.019 -16562779.112 10 0 60430 78300.00000 0 -15726439.728 14240078.275 -14173703.797 10 0 60430 79200.00000 0 -17101913.210 15036568.863 -11509521.390 10 0 60430 80100.00000 0 -18118533.590 15762752.180 -8621956.006 10 0 60430 81000.00000 0 -18774007.467 16360333.782 -5567059.539 10 0 60430 81900.00000 0 -19079003.137 16773514.073 -2404124.892 10 0 60430 82800.00000 0 -19056495.748 16951492.889 805463.604 10 0 60430 83700.00000 0 -18740610.013 16850779.221 3999420.240 10 0 60430 84600.00000 0 -18175009.991 16437208.343 7115765.307 10 0 60430 85500.00000 0 -17410904.348 15687580.930 10094026.219 10 0 60431 0.00000 0 -16504751.709 14590854.618 12876408.820 10 0 60431 900.00000 0 -15515762.507 13148836.486 15408917.628 10 0 60431 1800.00000 0 -14503303.935 11376347.999 17642399.698 10 0 60431 2700.00000 0 -13524315.572 9300852.457 19533497.113 10 0 60431 3600.00000 0 -12630845.491 6961560.726 21045486.160 10 0 60431 4500.00000 0 -11867809.769 4408050.786 22148988.836 10 0 60431 5400.00000 0 -11271069.429 1698457.393 22822542.965 10 0 60431 6300.00000 0 -10865905.400 -1102694.145 23053020.155 10 0 60431 7200.00000 0 -10665955.463 -3926921.263 22835883.586 10 0 60431 8100.00000 0 -10672657.854 -6704384.643 22175280.549 10 0 60431 9000.00000 0 -10875225.035 -9366548.969 21083967.646 10 0 60431 9900.00000 0 -11251149.067 -11848794.297 19583069.581 10 0 60431 10800.00000 0 -11767217.642 -14092870.215 17701675.612 10 0 60431 11700.00000 0 -12380998.461 -16049091.278 15476280.710 10 0 60431 12600.00000 0 -13042729.710 -17678182.606 12950081.585 10 0 60431 13500.00000 0 -13697537.160 -18952698.992 10172140.652 10 0 60431 14400.00000 0 -14287884.309 -19857958.459 7196433.721 10 0 60431 15300.00000 0 -14756151.820 -20392451.490 4080799.789 10 0 60431 16200.00000 0 -15047236.745 -20567709.168 885813.495 10 0 60431 17100.00000 0 -15111060.877 -20407636.298 -2326397.483 10 0 60431 18000.00000 0 -14904881.240 -19947338.265 -5493366.391 10 0 60431 18900.00000 0 -14395303.960 -19231491.881 -8553508.352 10 0 60431 19800.00000 0 -13559915.335 -18312329.807 -11447323.767 10 0 60431 20700.00000 0 -12388460.162 -17247324.522 -14118559.944 10 0 60431 21600.00000 0 -10883516.626 -16096670.416 -16515307.814 10 0 60431 22500.00000 0 -9060638.445 -14920670.910 -18591012.057 10 0 60431 23400.00000 0 -6947957.491 -13777141.270 -20305374.914 10 0 60431 24300.00000 0 -4585262.862 -12718936.777 -21625136.313 10 0 60431 25200.00000 0 -2022594.270 -11791710.211 -22524715.620 10 0 60431 26100.00000 0 681592.062 -11031992.694 -22986703.084 10 0 60431 27000.00000 0 3462609.186 -10465677.946 -23002192.142 10 0 60431 27900.00000 0 6251986.534 -10106972.938 -22570946.738 10 0 60431 28800.00000 0 8980077.264 -9957858.159 -21701400.955 10 0 60431 29700.00000 0 11578718.283 -10008079.347 -20410491.325 10 0 60431 30600.00000 0 13983833.251 -10235670.236 -18723325.275 10 0 60431 31500.00000 0 16137871.274 -10607983.691 -16672692.137 10 0 60431 32400.00000 0 17991980.779 -11083187.320 -14298426.090 10 0 60431 33300.00000 0 19507829.097 -11612160.222 -11646633.145 10 0 60431 34200.00000 0 20658992.835 -12140710.695 -8768796.961 10 0 60431 35100.00000 0 21431862.004 -12612021.225 -5720780.589 10 0 60431 36000.00000 0 21826021.099 -12969217.437 -2561743.362 10 0 60431 36900.00000 0 21854092.066 -13157952.445 647006.090 10 0 60431 37800.00000 0 21541046.636 -13128897.274 3843198.429 10 0 60431 38700.00000 0 20923017.660 -12840031.919 6964810.676 10 0 60431 39600.00000 0 20045660.024 -12258639.947 9951268.204 10 0 60431 40500.00000 0 18962130.568 -11362921.971 12744618.282 10 0 60431 41400.00000 0 17730772.229 -10143159.287 15290652.447 10 0 60431 42300.00000 0 16412599.958 -8602377.836 17539956.005 10 0 60431 43200.00000 0 15068694.017 -6756483.511 19448864.574 10 0 60431 44100.00000 0 13757609.975 -4633861.881 20980309.440 10 0 60431 45000.00000 0 12532913.841 -2274457.712 22104535.690 10 0 60431 45900.00000 0 11440945.382 271628.749 22799679.566 10 0 60431 46800.00000 0 10518903.023 2945971.728 23052194.122 10 0 60431 47700.00000 0 9793330.274 5684001.357 22857115.049 10 0 60431 48600.00000 0 9279066.833 8417447.268 22218161.434 10 0 60431 49500.00000 0 8978708.158 11076943.981 21147669.239 10 0 60431 50400.00000 0 8882596.092 13594690.795 19666358.264 10 0 60431 51300.00000 0 8969340.928 15907056.395 17802936.496 10 0 60431 52200.00000 0 9206852.990 17957020.361 15593548.748 10 0 60431 53100.00000 0 9553840.373 19696350.183 13081079.608 10 0 60431 54000.00000 0 9961709.673 21087423.167 10314323.583 10 0 60431 54900.00000 0 10376789.346 22104617.194 7347038.111 10 0 60431 55800.00000 0 10742781.454 22735212.176 4236897.726 10 0 60431 56700.00000 0 11003337.563 22979764.542 1044369.786 10 0 60431 57600.00000 0 11104649.100 22851939.297 -2168465.979 10 0 60431 58500.00000 0 10997941.597 22377807.106 -5339130.474 10 0 60431 59400.00000 0 10641766.216 21594636.569 -8405966.464 10 0 60431 60300.00000 0 10003990.514 20549233.267 -11309343.433 10 0 60431 61200.00000 0 9063403.160 19295896.341 -13992821.867 10 0 60431 62100.00000 0 7810863.796 17894079.507 -16404253.722 10 0 60431 63000.00000 0 6249948.525 16405855.700 -18496797.331 10 0 60431 63900.00000 0 4397063.010 14893292.612 -20229826.894 10 0 60431 64800.00000 0 2281017.549 13415849.810 -21569719.076 10 0 60431 65700.00000 0 -57918.782 12027906.763 -22490501.858 10 0 60431 66600.00000 0 -2569446.076 10776525.329 -22974353.602 10 0 60431 67500.00000 0 -5195084.687 9699539.934 -23011943.296 10 0 60431 68400.00000 0 -7870373.050 8824054.704 -22602606.063 10 0 60431 69300.00000 0 -10527321.369 8165409.555 -21754351.016 10 0 60431 70200.00000 0 -13097019.917 7726657.470 -20483701.758 10 0 60431 71100.00000 0 -15512294.222 7498573.763 -18815372.776 10 0 60431 72000.00000 0 -17710297.514 7460195.910 -16781788.056 10 0 60431 72900.00000 0 -19634933.370 7579870.293 -14422451.128 10 0 60431 73800.00000 0 -21239008.488 7816761.086 -11783178.491 10 0 60431 74700.00000 0 -22486026.587 8122757.092 -8915211.083 10 0 60431 75600.00000 0 -23351549.347 8444695.696 -5874220.769 10 0 60431 76500.00000 0 -23824068.242 8726809.706 -2719230.939 10 0 60431 77400.00000 0 -23905351.452 8913293.463 488527.851 10 0 60431 78300.00000 0 -23610252.014 8950879.542 3686804.995 10 0 60431 79200.00000 0 -22965985.844 8791316.829 6813536.609 10 0 60431 80100.00000 0 -22010910.449 8393644.937 9808048.381 10 0 60431 81000.00000 0 -20792856.017 7726168.424 12612231.111 10 0 60431 81900.00000 0 -19367079.237 6768046.917 15171666.158 10 0 60431 82800.00000 0 -17793925.856 5510433.345 17436679.033 10 0 60431 83700.00000 0 -16136300.019 3957111.411 19363300.955 10 0 60431 84600.00000 0 -14457046.283 2124604.350 20914120.059 10 0 60431 85500.00000 0 -12816353.684 41749.075 22059006.105 10 0 60432 0.00000 0 -11269290.239 -2251247.761 22775694.968 10 0 60432 900.00000 0 -9863569.734 -4704235.195 23050222.181 10 0 60432 1800.00000 0 -8637645.749 -7258963.912 22877196.387 10 0 60432 2700.00000 0 -7619209.394 -9851281.404 22259908.612 10 0 60432 3600.00000 0 -6824155.234 -12413583.365 21210273.927 10 0 60432 4500.00000 0 -6256057.484 -14877421.590 19748606.579 10 0 60432 5400.00000 0 -5906178.252 -17176160.593 17903232.249 10 0 60432 6300.00000 0 -5754007.209 -19247572.935 15709944.203 10 0 60432 7200.00000 0 -5768309.750 -21036265.391 13211313.168 10 0 60432 8100.00000 0 -5908639.268 -22495834.845 10455863.708 10 0 60432 9000.00000 0 -6127249.407 -23590663.763 7497132.626 10 0 60432 9900.00000 0 -6371325.113 -24297279.910 4392627.529 10 0 60432 10800.00000 0 -6585437.518 -24605223.187 1202705.899 10 0 60432 11700.00000 0 -6714118.045 -24517383.139 -2010603.181 10 0 60432 12600.00000 0 -6704441.780 -24049793.017 -5184811.064 10 0 60432 13500.00000 0 -6508509.709 -23230889.306 -8258191.003 10 0 60432 14400.00000 0 -6085723.591 -22100268.335 -11170984.466 10 0 60432 15300.00000 0 -5404756.113 -20706992.864 -13866568.018 10 0 60432 16200.00000 0 -4445131.953 -19107520.558 -16292557.490 10 0 60432 17100.00000 0 -3198351.988 -17363342.123 -18401827.583 10 0 60432 18000.00000 0 -1668512.350 -15538428.890 -20153426.959 10 0 60432 18900.00000 0 127608.571 -13696597.364 -21513371.209 10 0 60432 19800.00000 0 2160999.628 -11898901.346 -22455298.745 10 0 60432 20700.00000 0 4391384.813 -10201160.702 -22960977.407 10 0 60432 21600.00000 0 6768669.781 -8651729.698 -23020652.659 10 0 60432 22500.00000 0 9234807.359 -7289597.457 -22633231.250 10 0 60432 23400.00000 0 11726004.919 -6142898.919 -21806297.329 10 0 60432 24300.00000 0 14175182.412 -5227897.401 -20555961.127 10 0 60432 25200.00000 0 16514579.451 -4548479.952 -18906543.304 10 0 60432 26100.00000 0 18678403.563 -4096185.357 -16890101.165 10 0 60432 27000.00000 0 20605410.048 -3850762.326 -14545805.771 10 0 60432 27900.00000 0 22241306.560 -3781233.276 -11919181.803 10 0 60432 28800.00000 0 23540882.705 -3847417.999 -9061224.695 10 0 60432 29700.00000 0 24469776.305 -4001852.210 -6027411.899 10 0 60432 30600.00000 0 25005803.014 -4192019.468 -2876627.291 10 0 60432 31500.00000 0 25139794.083 -4362801.686 329980.454 10 0 60432 32400.00000 0 24875907.653 -4459044.323 3530183.363 10 0 60432 33300.00000 0 24231400.866 -4428127.449 6661880.490 10 0 60432 34200.00000 0 23235872.713 -4222433.650 9664301.481 10 0 60432 35100.00000 0 21930009.582 -3801608.060 12479184.008 10 0 60432 36000.00000 0 20363886.299 -3134514.587 15051902.207 10 0 60432 36900.00000 0 18594893.889 -2200805.157 17332524.308 10 0 60432 37800.00000 0 16685380.785 -992035.056 19276779.196 10 0 60432 38700.00000 0 14700105.969 487723.572 20846913.461 10 0 60432 39600.00000 0 12703610.214 2221797.017 22012422.683 10 0 60432 40500.00000 0 10757614.789 4181359.040 22750643.156 10 0 60432 41400.00000 0 8918555.688 6326396.374 23047192.869 10 0 60432 42300.00000 0 7235355.713 8607151.935 22896253.345 10 0 60432 43200.00000 0 5747526.760 10965987.074 22300686.836 10 0 60432 44100.00000 0 4483680.911 13339586.704 21271986.327 10 0 60432 45000.00000 0 3460511.975 15661416.656 19830058.867 10 0 60432 45900.00000 0 2682289.527 17864331.870 18002845.771 10 0 60432 46800.00000 0 2140886.118 19883227.412 15825786.325 10 0 60432 47700.00000 0 1816336.081 21657622.076 13341134.665 10 0 60432 48600.00000 0 1677901.920 23134066.763 10597142.438 10 0 60432 49500.00000 0 1685602.875 24268276.791 7647122.662 10 0 60432 50400.00000 0 1792140.586 25026898.504 4548412.764 10 0 60432 51300.00000 0 1945139.778 25388835.737 1361257.058 10 0 60432 52200.00000 0 2089608.377 25346080.086 -1852369.263 10 0 60432 53100.00000 0 2170511.950 24904009.835 -5029971.104 10 0 60432 54000.00000 0 2135352.394 24081144.905 -8109755.091 10 0 60432 54900.00000 0 1936640.562 22908368.208 -11031837.250 10 0 60432 55800.00000 0 1534157.047 21427646.445 -13739412.464 10 0 60432 56700.00000 0 896904.395 19690304.582 -16179862.303 10 0 60432 57600.00000 0 4667.316 17754926.904 -18305779.344 10 0 60432 58500.00000 0 -1150885.906 15684973.281 -20075887.880 10 0 60432 59400.00000 0 -2565607.945 13546210.874 -21455843.307 10 0 60432 60300.00000 0 -4222808.720 11404068.958 -22418895.067 10 0 60432 61200.00000 0 -6093726.786 9321027.414 -22946400.818 10 0 60432 62100.00000 0 -8138516.711 7354147.570 -23028182.553 10 0 60432 63000.00000 0 -10307711.835 5552847.728 -22662718.382 10 0 60432 63900.00000 0 -12544101.915 3957015.273 -21857166.873 10 0 60432 64800.00000 0 -14784947.995 2595532.878 -20627223.871 10 0 60432 65700.00000 0 -16964442.783 1485278.955 -18996814.807 10 0 60432 66600.00000 0 -19016314.576 630642.648 -16997628.512 10 0 60432 67500.00000 0 -20876466.740 23572.195 -14668501.474 10 0 60432 68400.00000 0 -22485543.180 -355846.822 -12054664.203 10 0 60432 69300.00000 0 -23791313.121 -538308.849 -9206864.103 10 0 60432 70200.00000 0 -24750775.948 -563748.004 -6180381.599 10 0 60432 71100.00000 0 -25331898.376 -479405.820 -3033958.401 10 0 60432 72000.00000 0 -25514911.463 -337589.299 171341.346 10 0 60432 72900.00000 0 -25293113.325 -193214.556 3373314.934 10 0 60432 73800.00000 0 -24673144.032 -101240.338 6509826.942 10 0 60432 74700.00000 0 -23674721.253 -114100.278 9520013.520 10 0 60432 75600.00000 0 -22329847.774 -279242.842 12345461.669 10 0 60432 76500.00000 0 -20681524.033 -636883.270 14931340.637 10 0 60432 77400.00000 0 -18782019.517 -1218062.953 17227463.544 10 0 60432 78300.00000 0 -16690775.099 -2043098.645 19189258.864 10 0 60432 79200.00000 0 -14472023.690 -3120487.630 20778633.280 10 0 60432 80100.00000 0 -12192228.128 -4446315.849 21964709.486 10 0 60432 81000.00000 0 -9917442.662 -6004194.973 22724425.075 10 0 60432 81900.00000 0 -7710707.366 -7765732.434 23042981.170 10 0 60432 82800.00000 0 -5629583.389 -9691516.178 22914132.268 10 0 60432 83700.00000 0 -3723930.990 -11732574.463 22340311.664 10 0 60432 84600.00000 0 -2034022.208 -13832251.228 21332589.750 10 0 60432 85500.00000 0 -589066.185 -15928420.008 19910465.548 99